Midland, MI

7:29 PM EDT on June 22, 2017 (GMT -0400)
Barstow

Weather History for KIKW - May, 2014

Change the Weather History Date:

Monday, May 12, 2014

  Actual Average (KMBS) Record (KMBS)
Temperature  
Mean Temperature 63 °F -  
Max Temperature 70 °F 64 °F 84 °F (2004)
Min Temperature 56 °F 44 °F 32 °F (2013)
Degree Days  
Heating Degree Days 2    
Growing Degree Days 13 (Base 50)    
Moisture  
Dew Point 58 °F    
Average Humidity 85    
Maximum Humidity 95    
Minimum Humidity 54    
Precipitation  
Precipitation 0.25 in - - ()
Sea Level Pressure  
Sea Level Pressure 29.95 in    
Wind  
Wind Speed 4 mph (East)    
Max Wind Speed 14 mph    
Max Gust Speed 16 mph    
Visibility 7 miles    
Events Fog , Rain    
Averages and records for this station are not official NWS values.
T = Trace of Precipitation, MM = Missing Value Source: NWS Daily Summary

Daily Weather History Graph

Daily Weather History Graph

Search for Another Location

Airport or City:

Trip Planner

Search our weather history database for the weather conditions in past years. The results will help you decide how hot, cold, wet, or windy it might be!

Date:

Astronomy

May. 12, 2014 Rise Set
Actual Time 6:15 AM EDT 8:52 PM EDT
Civil Twilight 5:42 AM EDT 9:25 PM EDT
Nautical Twilight 5:01 AM EDT 10:06 PM EDT
Astronomical Twilight 4:14 AM EDT 10:53 PM EDT
Moon 6:45 PM EDT (5/12) 4:58 AM EDT (5/12)
Length of Visible Light 15h 42m
Length of Day
14h 36m
Waxing Gibbous, 95% of the Moon is Illuminated
May 12
Waxing Gibbous
May 14
Full
May 21
Last Quarter
May 28
New
Jun 5
First Quarter

Hourly Weather History & Observations

Time (EDT) Temp. Dew Point Humidity Pressure Visibility Wind Dir Wind Speed Gust Speed Precip Events Conditions
12:12 AM 69.3 °F 52.2 °F 54% 29.94 in 10.0 mi South 4.6 mph - N/A   Clear
12:32 AM 68.4 °F 52.0 °F 56% 29.96 in 10.0 mi West 5.8 mph 10.4 mph N/A   Clear
12:53 AM 68.4 °F 52.7 °F 57% 29.96 in 10.0 mi West 3.5 mph - N/A   Scattered Clouds
1:12 AM 68.7 °F 52.7 °F 57% 29.96 in 10.0 mi West 3.5 mph - N/A   Scattered Clouds
1:32 AM 68.4 °F 53.8 °F 60% 29.96 in 10.0 mi WNW 4.6 mph - N/A   Clear
1:52 AM 66.6 °F 54.1 °F 64% 29.95 in 10.0 mi NW 3.5 mph - N/A   Clear
2:12 AM 65.8 °F 54.5 °F 67% 29.95 in 10.0 mi Calm Calm - N/A   Clear
2:32 AM 64.8 °F 54.5 °F 69% 29.94 in 10.0 mi Calm Calm - N/A   Clear
2:52 AM 62.8 °F 54.9 °F 75% 29.94 in 10.0 mi Calm Calm - N/A   Clear
3:12 AM 62.2 °F 54.9 °F 77% 29.94 in 10.0 mi East 3.5 mph - N/A   Clear
3:33 AM 63.9 °F 54.5 °F 72% 29.93 in 10.0 mi Calm Calm - N/A   Clear
3:52 AM 61.9 °F 54.3 °F 76% 29.93 in 10.0 mi Calm Calm - N/A   Scattered Clouds
4:12 AM 61.3 °F 54.9 °F 79% 29.94 in 10.0 mi Calm Calm - N/A   Overcast
4:33 AM 61.2 °F 54.9 °F 80% 29.95 in 10.0 mi Calm Calm - N/A   Overcast
4:52 AM 59.9 °F 55.0 °F 84% 29.95 in 10.0 mi Calm Calm - N/A   Mostly Cloudy
5:12 AM 59.0 °F 54.7 °F 86% 29.94 in 10.0 mi Calm Calm - N/A   Scattered Clouds
5:32 AM 58.5 °F 54.7 °F 87% 29.93 in 10.0 mi Calm Calm - N/A   Mostly Cloudy
5:52 AM 58.3 °F 55.2 °F 90% 29.93 in 10.0 mi Calm Calm - N/A   Mostly Cloudy
6:13 AM 57.2 °F 54.5 °F 91% 29.94 in 10.0 mi WNW 3.5 mph - N/A   Clear
6:32 AM 57.4 °F 54.1 °F 89% 29.95 in 10.0 mi Calm Calm - N/A   Clear
6:52 AM 57.6 °F 54.5 °F 90% 29.98 in 10.0 mi Calm Calm - N/A   Scattered Clouds
7:13 AM 59.9 °F 56.3 °F 88% 29.97 in 10.0 mi Calm Calm - N/A   Scattered Clouds
7:32 AM 59.9 °F 56.5 °F 88% 29.97 in 10.0 mi Calm Calm - N/A   Clear
7:52 AM 61.2 °F 57.2 °F 87% 29.97 in 10.0 mi Calm Calm - N/A   Mostly Cloudy
8:07 AM 60.4 °F 57.2 °F 89% 29.97 in 10.0 mi ENE 3.5 mph - N/A   Overcast
8:32 AM 61.3 °F 57.2 °F 86% 29.97 in 10.0 mi Calm Calm - N/A   Mostly Cloudy
8:53 AM 60.4 °F 56.7 °F 87% 29.96 in 10.0 mi Calm Calm - N/A   Scattered Clouds
9:12 AM 61.3 °F 57.4 °F 87% 29.98 in 10.0 mi Calm Calm - N/A Rain Light Rain
9:32 AM 60.4 °F 57.9 °F 91% 29.99 in 7.0 mi Calm Calm - 0.01 in Rain Rain
10:12 AM 61.3 °F 59.0 °F 92% 29.99 in 3.0 mi Calm Calm - 0.03 in Rain Rain
10:33 AM 61.3 °F 59.0 °F 92% 29.99 in 7.0 mi ENE 4.6 mph - 0.04 in Rain Rain
10:52 AM 61.3 °F 58.6 °F 91% 30.01 in 4.0 mi East 5.8 mph - 0.07 in Rain Light Rain
11:12 AM 61.0 °F 58.6 °F 92% 29.97 in 3.0 mi NNE 4.6 mph - 0.01 in Rain Light Rain
11:33 AM 59.2 °F 56.8 °F 92% 30.00 in 4.0 mi ESE 5.8 mph - 0.01 in Rain Light Rain
11:52 AM 59.2 °F 57.2 °F 93% 29.96 in 2.0 mi ESE 13.8 mph - 0.05 in Rain Light Rain
12:12 PM 61.3 °F 59.4 °F 93% 29.97 in 4.0 mi East 6.9 mph - N/A   Mostly Cloudy
12:32 PM 63.5 °F 60.6 °F 90% 29.99 in 7.0 mi SE 6.9 mph - N/A   Mostly Cloudy
12:52 PM 64.2 °F 61.2 °F 90% 29.98 in 7.0 mi ESE 5.8 mph - N/A   Overcast
1:13 PM 63.9 °F 60.6 °F 89% 29.97 in 7.0 mi East 4.6 mph - N/A   Overcast
1:32 PM 63.5 °F 60.6 °F 90% 29.97 in 3.0 mi East 5.8 mph - 0.04 in Rain Heavy Rain
1:52 PM 64.4 °F 61.7 °F 91% 29.98 in 4.0 mi SE 3.5 mph - 0.04 in Rain Light Rain
2:13 PM 66.6 °F 64.2 °F 92% 29.97 in 4.0 mi SE 3.5 mph - N/A   Overcast
2:32 PM 67.1 °F 64.0 °F 90% 29.95 in 7.0 mi SSE 6.9 mph - N/A   Drizzle
2:52 PM 67.5 °F 63.9 °F 88% 29.95 in 10.0 mi SE 8.1 mph - N/A Rain Rain
3:32 PM 68.2 °F 63.5 °F 85% 29.94 in 10.0 mi SSE 9.2 mph 16.1 mph N/A   Overcast
3:53 PM 68.9 °F 63.0 °F 81% 29.93 in 10.0 mi SE 11.5 mph - N/A   Overcast
4:12 PM 68.4 °F 62.6 °F 82% 29.93 in 10.0 mi SSE 10.4 mph - N/A   Overcast
4:32 PM 68.4 °F 63.1 °F 83% 29.92 in 10.0 mi SSE 6.9 mph - N/A   Overcast
4:52 PM 68.2 °F 63.5 °F 85% 29.92 in 10.0 mi South 8.1 mph - N/A   Overcast
5:12 PM 66.6 °F 63.7 °F 90% 29.97 in 4.0 mi WSW 6.9 mph - 0.07 in Rain Light Rain
5:32 PM 66.6 °F 64.2 °F 92% 29.91 in 7.0 mi East 10.4 mph - 0.07 in   Scattered Clouds
5:50 PM 66.9 °F 64.6 °F 92% 29.89 in 10.0 mi ESE 6.9 mph - 0.08 in   Clear
6:15 PM 69.1 °F 65.8 °F 89% 29.91 in 10.0 mi SE 8.1 mph - N/A   Mostly Cloudy
6:32 PM 69.6 °F 66.0 °F 88% 29.90 in 10.0 mi ESE 6.9 mph - N/A   Mostly Cloudy
6:53 PM 70.2 °F 66.2 °F 87% 29.91 in 10.0 mi SE 5.8 mph - N/A   Mostly Cloudy
7:12 PM 70.0 °F 65.8 °F 87% 29.91 in 7.0 mi SE 6.9 mph - N/A   Overcast
7:32 PM 64.9 °F 61.7 °F 89% 29.92 in 5.0 mi ENE 6.9 mph - N/A   Overcast
7:52 PM 63.7 °F 61.0 °F 91% 29.92 in 5.0 mi ENE 4.6 mph - N/A   Overcast
8:12 PM 63.1 °F 60.8 °F 92% 29.92 in 5.0 mi ENE 3.5 mph - N/A   Mostly Cloudy
8:32 PM 61.3 °F 59.0 °F 92% 29.92 in 5.0 mi NE 3.5 mph - N/A   Scattered Clouds
8:52 PM 59.9 °F 57.6 °F 92% 29.92 in 5.0 mi NE 3.5 mph - N/A   Clear
9:12 PM 59.0 °F 57.2 °F 94% 29.92 in 5.0 mi ENE 3.5 mph - N/A   Mostly Cloudy
9:32 PM 57.9 °F 55.9 °F 93% 29.92 in 3.0 mi NE 3.5 mph - N/A   Overcast
9:52 PM 57.6 °F 55.8 °F 94% 29.93 in 3.0 mi ENE 4.6 mph - N/A   Overcast
10:12 PM 57.4 °F 55.8 °F 94% 29.94 in 1.8 mi ENE 3.5 mph - N/A   Overcast
10:32 PM 57.4 °F 55.8 °F 94% 29.93 in 1.5 mi East 4.6 mph - N/A   Overcast
10:52 PM 57.2 °F 55.6 °F 94% 29.93 in 1.8 mi NE 3.5 mph - N/A   Overcast
11:12 PM 56.8 °F 55.4 °F 95% 29.93 in 1.5 mi ENE 4.6 mph - N/A   Overcast
11:32 PM 56.7 °F 55.0 °F 94% 29.93 in 0.5 mi East 4.6 mph - N/A Fog Fog
11:52 PM 56.3 °F 54.5 °F 94% 29.93 in 0.5 mi East 5.8 mph - N/A Fog Fog